Regional Weather Roundup
Issued by NWS

Current Version | Previous Version | Text Only | Print | Product List | Glossary Off
Versions: 1 2 3 4 5 6 7 8 9 10 11 12 13 14 15 16 17 18 19 20 21 22 23 24 25 26 27 28 29 30 31 32 33 34 35 36 37 38 39 40 41 42 43 44 45 46 47 48 49 50

000
ASUS43 KLMK 281910
RWRKY
KENTUCKY REGIONAL WEATHER ROUNDUP
NATIONAL WEATHER SERVICE LOUISVILLE KY
200 PM EST FRI NOV 28 2014

NOTE "FAIR" INDICATES FEW OR NO CLOUDS BELOW 12,000 FEET
WITH NO SIGNIFICANT WEATHER AND/OR OBSTRUCTIONS TO VISIBILITY.

KYZ001>023-026-027-061>063-070>075-282000-
WESTERN AND SOUTH CENTRAL KENTUCKY

CITY           SKY/WX    TMP DP  RH WIND       PRES   REMARKS
PADUCAH        SUNNY     45  29  53 VRB7G17   30.21F
HENDERSON      SUNNY     43  28  56 S13       30.22F
OWENSBORO      SUNNY     41  27  57 S12       30.25F
HOPKINSVILLE   SUNNY     44  25  46 SE8       30.26F
BOWLING GREEN  MOSUNNY   41  21  44 S7        30.29F
GLASGOW        SUNNY     40  23  49 S9        30.29F WCI  34
$$

KYZ024-025-028>034-038-045-046-053-282000-
NORTH CENTRAL KENTUCKY

CITY           SKY/WX    TMP DP  RH WIND       PRES   REMARKS
LOUISVILLE/SDF PTSUNNY   38  20  48 S12       30.27F WCI  30
LOUISVILLE/LOU PTSUNNY   36  21  54 S8        30.28F WCI  30
FORT KNOX      MOSUNNY   37  24  59 S12       30.25F WCI  29
$$

KYZ035>037-039>044-047>052-055>060-089>105-282000-
NORTHEAST KENTUCKY

CITY           SKY/WX    TMP DP  RH WIND       PRES   REMARKS
LEXINGTON      CLOUDY    33  17  51 S10       30.28F WCI  25
COVINGTON      PTSUNNY   33  16  49 S9        30.26F WCI  25
FRANKFORT      CLOUDY    34  18  52 S8        30.27F WCI  27
$$

KYZ054-064>069-076>088-106>120-282000-
SOUTHEAST KENTUCKY

CITY           SKY/WX    TMP DP  RH WIND       PRES   REMARKS
JACKSON        MOSUNNY   35  16  45 SW6       30.29F WCI  30
LONDON         PTSUNNY   35  17  47 S7        30.30F WCI  29
SOMERSET       CLOUDY    36  18  48 SW7       30.31F WCI  30
MIDDLESBORO    NOT AVBL
MONTICELLO     CLEAR     40  20  45 SW6       30.32F
$$



USA.gov is the U.S. government's official web portal to all federal, state and local government web resources and services.